Location: Little Suamico
(44.7175°N, 88.0093°W)
Time: 16:26:47
(UTC+00:00)

ISS - Pass Details

Date: 28 April 2021
Orbit: 417 x 422 km, 51.6° (Epoch: 17 May)

Event Time Altitude Azimuth Distance (km) Brightness Sun altitude
Exits shadow 10:00:11 11° 237° (WSW) 1,426 -1.8 -8.2°
Maximum altitude 10:03:23 86° 152° (SSE) 426 -3.7 -7.7°
Drops below altitude 10° 10:06:46 10° 60° (ENE) 1,508 0.9 -7.2°
Sets 10:08:53 0° 60° (ENE) 2,376 2.8 -6.8°
